[[{"header":{"parameterUnit":"m.s-1","parameterCategory":1,"la1":30.2991,"la2":30.254,"lo1":-89.0895,"lo2":-89.0444,"dy":0.0017,"dx":0.0017,"nx":28,"ny":28,"refTime":"2023-08-09T21:00:00:Z","depth":0,"parameterNumber":2,"parameterNumberName":"U-component_of_WINDS"},"data":[0,0,0,0,0,0,0,0,0,0,0,0,0,0,0,0,0,0,0,0,0,0,0,0,0,0,0,0,0,0,0,0,0,0,0,0,0,0,0,0,0,0,0,0,0,0,0,0,0,0,0,0,0,0,0,0,0,0,5.2359,5.236,0,5.2449,5.245,5.2451,5.2401,5.2398,5.2396,5.2393,5.2483,5.2487,5.2492,0,0,0,0,0,0,0,0,0,0,0,0,0,5.2137,5.2141,5.2359,5.236,5.2361,5.2449,5.245,5.2451,5.2401,5.2398,5.2395,5.2392,5.2481,5.2487,5.2492,0,0,0,0,0,0,0,0,0,0,0,0,0,5.2231,5.2142,5.2358,5.2347,5.2346,5.2449,5.245,5.2452,5.2402,5.2398,5.2394,5.2391,5.2479,5.2486,5.2493,5.2611,0,0,5.2515,5.2518,0,0,0,0,0,0,0,0,5.2225,5.2239,5.2347,5.2348,5.2348,5.241,5.2404,5.2505,5.2403,5.2381,5.2393,5.2389,5.2461,5.2469,5.2494,5.2615,5.2619,5.2515,5.2519,5.2522,5.2524,0,0,0,0,0,0,0,5.2219,5.2235,5.2394,5.2349,5.2349,5.2335,5.2344,5.2423,5.2441,5.2382,5.2379,5.239,5.2461,5.2488,5.2496,5.262,5.2515,5.2521,5.2526,5.2528,5.2836,5.284,0,0,0,0,0,0,5.2214,5.2229,5.2391,5.2397,5.2276,5.2342,5.2352,5.2394,5.244,5.2443,5.2394,5.2388,5.2478,5.2488,5.2499,5.2636,5.2522,5.2529,5.2533,5.2832,5.2837,5.2841,0,0,0,0,0,0,5.2209,5.2229,5.2388,5.2312,5.2331,5.235,5.2397,5.2397,5.2424,5.2448,5.245,5.2419,5.2475,5.2489,5.2582,5.2638,5.2532,5.2539,5.2828,5.2834,5.2839,5.2913,0,0,0,0,0,0,5.2203,5.2227,5.2274,5.2314,5.2336,5.2472,5.24,5.2402,5.2437,5.243,5.2472,5.2476,5.2473,5.2572,5.2589,5.2646,5.2544,5.2823,5.283,5.2837,5.2906,5.2921,5.2934,0,0,0,0,0,5.2195,5.2292,5.2277,5.2297,5.2395,5.2475,5.2487,5.2484,5.2442,5.2487,5.2502,5.2474,5.263,5.2582,5.2601,5.2661,5.2819,5.2828,5.2837,5.2899,5.2918,5.2933,0,0,0,0,0,0,5.2258,5.2297,5.2281,5.2393,5.2431,5.2466,5.2524,5.2504,5.2554,5.2545,5.2538,5.2548,5.2644,5.2662,5.2608,5.2775,5.2718,5.2731,5.2759,5.2777,5.279,5.2782,5.255,0,0,0,0,0,5.2285,5.2348,5.2379,5.2475,5.2495,5.2506,5.2541,5.2535,5.2573,5.2589,5.261,5.2648,5.2704,5.2742,5.2796,5.2909,5.2914,5.2959,5.2973,5.2984,5.2995,5.305,5.3069,5.2871,5.2871,5.287,0,0,5.2341,5.237,5.2411,5.2488,5.2517,5.2579,5.252,5.2591,5.2636,5.2599,5.2687,5.2705,5.2745,5.2847,5.2894,5.2866,5.3051,5.2996,5.3005,5.3009,5.3061,5.308,5.3097,5.2877,5.2876,5.2875,0,0,5.2474,5.2505,5.2586,5.2616,5.266,5.2666,5.2686,5.2724,5.2733,5.2822,5.2794,5.2848,5.2948,5.2976,5.3004,5.3145,5.3119,5.3163,5.3235,5.3289,5.3305,5.3318,5.3364,5.3381,5.3174,5.3174,5.3174,0,5.2538,5.2634,5.263,5.2701,5.2734,5.2704,5.2784,5.2812,5.2872,5.2894,5.2862,5.2983,5.3009,5.3115,5.3149,5.3174,5.3193,5.3156,5.3303,5.3317,5.3329,5.3373,5.339,5.3178,5.3178,5.3177,5.3177,0,5.2707,5.2774,5.2834,5.2891,5.2931,5.3007,5.3011,5.3052,5.3042,5.3051,5.3139,5.3169,5.3226,5.3251,5.3243,5.3355,5.3335,5.3304,5.3246,5.3353,5.3393,5.341,5.3185,5.3183,5.3182,5.3181,0,0,5.2882,5.2935,5.2956,5.298,5.3025,5.3075,5.3148,5.3204,5.3236,5.3278,5.3336,5.342,5.3389,5.3421,5.3415,5.3463,5.3567,5.3425,5.3426,5.3447,5.3686,5.3707,5.3726,5.3552,5.3555,5.3558,5.3681,0,5.3015,5.3142,5.3139,5.3257,5.3315,5.3286,5.3349,5.3382,5.3392,5.3441,5.3452,5.3509,5.3468,5.3486,5.3533,5.3545,5.3614,5.3536,5.3601,5.3604,5.3588,5.3748,5.3771,5.3886,5.3698,5.37,5.3702,0,5.3187,5.3233,5.3356,5.3388,5.3413,5.3469,5.3518,5.3567,5.3602,5.3606,5.364,5.3625,5.3695,5.3638,5.3732,5.3679,5.3705,5.3715,5.3719,5.3722,5.3657,5.3751,5.3924,5.3939,5.3728,5.3726,5.3724,0,5.3296,5.3389,5.3473,5.3495,5.3536,5.3576,5.3595,5.3627,5.3659,5.3702,5.3722,5.3773,5.3799,5.3837,5.3835,5.3795,5.3929,5.3873,5.393,5.393,5.3957,5.3955,5.4132,5.3982,5.3982,5.3981,5.3981,0,5.3442,5.3517,5.3522,5.3573,5.3655,5.3651,5.3731,5.3746,5.3774,5.3825,5.3805,5.3853,5.385,5.3898,5.3897,5.3972,5.3986,5.3988,5.3986,5.3987,5.3986,5.4002,5.3992,5.3986,5.3985,5.3984,5.3983,0,5.3576,5.3583,5.3672,5.3704,5.3713,5.3772,5.3797,5.3844,5.3852,5.3917,5.3932,5.3944,5.3999,5.4002,5.4066,5.4065,5.4155,5.4147,5.4143,5.414,5.4195,5.4188,5.4386,5.4409,5.4248,5.4249,5.4251,0,5.3667,5.3723,5.376,5.3794,5.3814,5.3869,5.3901,5.3898,5.3933,5.3975,5.4016,5.407,5.4112,5.4201,5.4214,5.4262,5.4251,5.4317,5.4258,5.4256,5.4246,5.4241,5.4244,5.4327,5.4329,5.433,5.4332,0,5.3825,5.3825,5.3874,5.3922,5.3962,5.4,5.4036,5.4064,5.4064,5.4103,5.416,5.4192,5.4257,5.4308,5.4354,5.4371,5.435,5.4351,5.4365,5.4365,5.4359,5.4358,5.4169,5.4345,5.4344,5.4343,5.4342,5.4342,5.3937,5.3984,5.4016,5.407,5.4096,5.4129,5.4174,5.4186,5.4234,5.4285,5.4281,5.4342,5.4372,5.4432,5.4452,5.4498,5.4475,5.4498,5.4503,5.4508,5.4511,5.4355,5.4507,5.4507,5.4506,5.4506,5.4506,0,5.409,5.4109,5.4158,5.4208,5.4249,5.4228,5.4265,5.43,5.4354,5.4385,5.4426,5.4488,5.4538,5.4554,5.4601,5.4634,5.4625,5.4646,5.4641,5.4645,5.4532,5.4512,5.4652,5.4652,5.4652,5.4652,5.4652,5.4652,5.4174,5.4251,5.4254,5.4343,5.4361,5.4421,5.4443,5.4472,5.4496,5.4567,5.4607,5.4618,5.4642,5.469,5.4733,5.4736,5.4752,5.4776,5.4775,5.4668,5.4653,5.4639,5.462,5.4781,5.4781,5.4883,5.4884,5.4885]},{"header":{"parameterUnit":"m.s-1","parameterCategory":1,"la1":30.2991,"la2":30.254,"lo1":-89.0895,"lo2":-89.0444,"dy":0.0017,"dx":0.0017,"nx":28,"ny":28,"refTime":"2023-08-09T21:00:00:Z","depth":0,"parameterNumber":3,"parameterNumberName":"V-component_of_WINDS"},"data":[0,0,0,0,0,0,0,0,0,0,0,0,0,0,0,0,0,0,0,0,0,0,0,0,0,0,0,0,0,0,0,0,0,0,0,0,0,0,0,0,0,0,0,0,0,0,0,0,0,0,0,0,0,0,0,0,0,0,5.2884,5.2886,0,5.2991,5.2993,5.2994,5.2957,5.2954,5.2952,5.295,5.3055,5.306,5.3065,0,0,0,0,0,0,0,0,0,0,0,0,0,5.2643,5.2647,5.2884,5.2886,5.2887,5.2991,5.2993,5.2994,5.2957,5.2954,5.2951,5.2948,5.3053,5.3059,5.3065,0,0,0,0,0,0,0,0,0,0,0,0,0,5.2748,5.2649,5.2884,5.2881,5.2882,5.2991,5.2993,5.2994,5.2958,5.2954,5.295,5.2947,5.3051,5.3059,5.3066,5.3183,0,0,5.3089,5.3092,0,0,0,0,0,0,0,0,5.2742,5.2757,5.288,5.2882,5.2883,5.2957,5.2946,5.3058,5.2958,5.2929,5.295,5.2945,5.3025,5.3034,5.3062,5.3188,5.3193,5.309,5.3094,5.3098,5.31,0,0,0,0,0,0,0,5.2735,5.2752,5.2927,5.2882,5.2884,5.2873,5.2884,5.2967,5.2995,5.2931,5.2929,5.2942,5.3025,5.3055,5.3064,5.3194,5.309,5.3096,5.3101,5.3104,5.3418,5.3422,0,0,0,0,0,0,5.2728,5.2747,5.2923,5.293,5.2803,5.288,5.2892,5.2937,5.2994,5.3,5.2945,5.294,5.3044,5.3056,5.3068,5.3207,5.3097,5.3104,5.3109,5.3414,5.3419,5.3423,0,0,0,0,0,0,5.2723,5.2744,5.2919,5.2838,5.2859,5.2888,5.2938,5.2941,5.2971,5.3005,5.3009,5.2971,5.3042,5.3057,5.3154,5.321,5.3108,5.3115,5.341,5.3416,5.3421,5.3487,0,0,0,0,0,0,5.2716,5.2742,5.2789,5.2839,5.2864,5.3006,5.2941,5.2945,5.2984,5.2979,5.303,5.3035,5.304,5.3143,5.3162,5.3219,5.3121,5.3405,5.3413,5.3419,5.348,5.3494,5.3507,0,0,0,0,0,5.2708,5.2803,5.2791,5.2813,5.2922,5.3009,5.3023,5.3027,5.2989,5.3034,5.3056,5.3034,5.3201,5.3154,5.3174,5.3234,5.3401,5.341,5.3419,5.3474,5.3491,5.3506,0,0,0,0,0,0,5.2757,5.2809,5.2797,5.2912,5.2956,5.3002,5.306,5.3046,5.3102,5.3094,5.3096,5.3108,5.3207,5.323,5.3176,5.3349,5.3295,5.3308,5.333,5.3347,5.336,5.3352,5.3127,0,0,0,0,0,5.2782,5.2849,5.289,5.2987,5.301,5.3032,5.3069,5.3069,5.3115,5.3133,5.3162,5.3206,5.3268,5.3309,5.3368,5.3483,5.3492,5.3534,5.3547,5.3558,5.3569,5.3629,5.3647,5.3452,5.3452,5.3451,0,0,5.2833,5.2869,5.2912,5.2998,5.3033,5.3101,5.3048,5.3122,5.3172,5.3144,5.3237,5.326,5.3308,5.3415,5.3463,5.3437,5.3625,5.3569,5.3577,5.3583,5.364,5.3658,5.3675,5.3458,5.3457,5.3456,0,0,5.296,5.2996,5.3079,5.3115,5.3168,5.3181,5.3201,5.3249,5.3263,5.3357,5.3337,5.3395,5.3503,5.3538,5.357,5.3708,5.3689,5.3727,5.3796,5.3855,5.387,5.3884,5.3931,5.3949,5.3738,5.3738,5.3738,0,5.3016,5.312,5.3124,5.32,5.3237,5.3216,5.3299,5.3333,5.3402,5.3427,5.3398,5.3531,5.3563,5.3675,5.3709,5.3736,5.3757,5.3721,5.3868,5.3882,5.3894,5.394,5.3958,5.3742,5.3742,5.3742,5.3741,0,5.3185,5.3257,5.3317,5.3385,5.343,5.3509,5.3523,5.3567,5.3563,5.3578,5.3673,5.3709,5.3775,5.3802,5.3798,5.3913,5.3895,5.3867,5.3813,5.3917,5.396,5.3977,5.3749,5.3747,5.3746,5.3745,0,0,5.3347,5.3416,5.3438,5.3467,5.3523,5.3578,5.3655,5.372,5.3757,5.3805,5.3868,5.3959,5.3932,5.3968,5.3968,5.402,5.4124,5.3984,5.3985,5.4008,5.4251,5.4272,5.4292,5.4112,5.4115,5.4118,5.4247,0,5.3478,5.3615,5.362,5.3744,5.3809,5.3789,5.3855,5.3896,5.3912,5.3968,5.3985,5.4048,5.401,5.4031,5.4081,5.4101,5.4173,5.4092,5.4169,5.4171,5.4156,5.4314,5.4337,5.4456,5.4263,5.4266,5.4268,0,5.3649,5.3703,5.3834,5.3879,5.3906,5.3966,5.4025,5.4079,5.4123,5.4131,5.4171,5.4163,5.4239,5.4183,5.4287,5.4232,5.4263,5.4277,5.4282,5.4289,5.4226,5.4324,5.4495,5.4512,5.4295,5.4293,5.4291,0,5.3752,5.3857,5.3949,5.3975,5.403,5.4072,5.4097,5.4138,5.4176,5.4226,5.4251,5.4309,5.4341,5.4385,5.4392,5.4351,5.4496,5.4441,5.4502,5.4502,5.4533,5.4531,5.4711,5.4556,5.4556,5.4555,5.4555,0,5.3897,5.3978,5.3996,5.4052,5.414,5.4144,5.4231,5.4252,5.4289,5.4347,5.4332,5.4387,5.4393,5.4448,5.4454,5.4538,5.4552,5.4559,5.456,5.456,5.4559,5.458,5.4572,5.456,5.4559,5.4558,5.4557,0,5.4027,5.4043,5.4141,5.4185,5.4197,5.4261,5.4297,5.435,5.4364,5.4437,5.4455,5.4477,5.4541,5.4552,5.4628,5.4631,5.4731,5.4724,5.4717,5.4716,5.4776,5.477,5.4975,5.5001,5.483,5.4832,5.4833,0,5.4118,5.418,5.423,5.4269,5.4295,5.4358,5.4396,5.4401,5.4442,5.4496,5.4541,5.4605,5.4655,5.4759,5.478,5.4838,5.483,5.4898,5.4839,5.4837,5.4829,5.4825,5.483,5.4909,5.4911,5.4913,5.4914,0,5.4278,5.4282,5.4339,5.4398,5.4445,5.4491,5.4535,5.4567,5.4578,5.4624,5.469,5.4729,5.4806,5.4869,5.4925,5.4948,5.4932,5.4932,5.4949,5.495,5.4943,5.4946,5.4747,5.4927,5.4926,5.4925,5.4924,5.4924,5.439,5.4443,5.4486,5.4549,5.4583,5.4624,5.4675,5.4695,5.4751,5.4815,5.4814,5.4886,5.4927,5.5001,5.5028,5.5083,5.5061,5.5086,5.5092,5.5098,5.5103,5.4935,5.5093,5.5093,5.5093,5.5092,5.5092,0,5.4547,5.4573,5.4632,5.4694,5.4743,5.4725,5.4772,5.4814,5.4878,5.4917,5.4967,5.5042,5.5102,5.5128,5.5186,5.5225,5.5219,5.524,5.5236,5.5241,5.512,5.5099,5.5243,5.5243,5.5243,5.5243,5.5243,5.5243,5.4634,5.4722,5.4731,5.4835,5.486,5.4931,5.496,5.4996,5.5028,5.5113,5.5162,5.5179,5.5212,5.5273,5.5326,5.5331,5.5353,5.5377,5.5379,5.5265,5.525,5.5235,5.5215,5.5382,5.5382,5.5495,5.5497,5.5497]}]]